EHI
3 5 9 8 2 0 0 1 2 4 6 8 8 8 7 6 5 6 7 5 3 3 4 2 0 1 2 3 5 6 8 7 6 5 3 2 2 1 0 0 0 0 0
3 5 8 8 4 1 1 1 2 3 5 6 5 5 5 4 3 4 5 4 2 2 3 2 0 0 1 4 6 6 7 8 7 5 3 1 1 0 0 0 0 0 0
2 3 7 9 7 5 3 3 3 3 4 4 3 3 3 2 2 3 3 2 1 1 1 1 0 0 1 4 5 5 5 6 5 3 1 0 0 0 0 1 1 0 1
1 1 5 10 11 10 8 6 4 3 3 3 2 3 2 1 1 1 2 1 0 0 0 0 0 1 2 3 3 3 3 4 3 2 1 0 0 0 0 1 2 2 2
0 0 5 13 16 14 12 8 5 4 3 3 3 3 3 1 1 0 1 1 0 0 0 0 1 2 2 2 1 1 2 2 1 1 0 0 0 1 2 3 4 4 4
0 0 7 17 20 16 12 9 6 5 4 3 3 3 3 2 1 0 0 0 0 0 0 1 2 3 3 2 1 1 2 3 2 1 1 1 1 4 6 5 6 7 6
1 0 6 16 19 14 11 10 8 6 5 5 5 4 4 4 2 1 1 1 0 0 1 2 4 4 3 4 5 4 4 4 3 3 2 2 4 7 9 8 7 7 6
1 1 5 12 15 12 10 9 8 6 6 6 7 6 6 5 4 3 2 2 1 2 3 5 7 8 8 8 10 9 7 5 4 3 3 2 5 9 11 10 7 5 5
1 1 3 7 8 8 7 7 7 7 7 8 8 8 7 5 4 4 4 4 5 6 9 11 13 14 13 12 13 13 10 7 5 3 1 1 5 12 15 13 10 7 5
1 1 2 2 2 2 3 5 6 7 7 8 8 8 7 5 4 5 6 7 9 12 15 16 16 15 15 14 14 15 13 9 5 3 2 3 7 14 18 16 13 10 8
3 2 1 1 0 0 0 2 4 5 5 5 5 5 5 4 4 5 7 10 14 17 19 19 17 15 13 13 13 14 12 8 4 3 3 6 11 15 19 19 16 13 11
6 4 1 0 0 0 0 1 2 4 4 3 2 3 5 5 4 4 6 10 16 18 17 16 15 13 10 9 9 9 6 4 3 3 5 9 14 18 21 22 20 16 14
9 6 2 1 2 2 1 1 2 4 5 4 3 4 5 4 4 3 3 6 11 12 10 8 7 6 5 4 3 2 1 1 1 2 5 10 16 21 22 22 22 20 18
10 8 6 5 6 5 3 3 4 6 6 6 5 6 5 4 4 3 3 4 6 5 3 2 1 1 1 1 1 0 0 0 0 1 4 10 15 18 20 21 21 21 20
11 11 10 10 9 7 6 6 8 8 7 7 6 5 4 4 5 5 4 4 5 5 3 1 0 0 0 0 0 0 0 0 0 0 2 7 12 15 17 19 19 19 20
12 11 11 10 9 8 9 9 10 9 7 7 7 6 6 6 5 4 4 5 6 5 3 1 1 1 1 1 1 0 0 0 0 0 1 5 10 13 15 17 18 17 16
11 10 9 8 8 9 10 11 11 9 7 7 7 8 9 8 6 5 5 5 6 4 2 1 1 2 2 2 2 1 0 0 0 0 0 2 6 10 13 16 18 16 14
11 12 11 11 10 10 10 11 11 9 8 7 7 8 9 9 7 6 7 6 4 2 1 0 1 2 2 2 2 1 0 0 0 0 0 0 2 4 8 13 17 16 14
14 14 14 13 12 11 10 10 10 9 7 6 7 7 7 7 8 8 9 6 2 1 0 0 0 1 1 1 1 1 0 0 0 0 0 0 1 2 3 8 12 14 13
17 17 16 14 13 12 11 10 9 8 7 6 6 5 6 7 8 9 8 5 2 1 1 0 0 0 0 0 0 0 0 0 0 0 0 1 2 2 1 4 7 9 11
20 20 18 15 14 15 13 11 9 8 7 6 5 5 6 7 7 7 6 4 3 3 2 1 0 0 0 0 0 0 0 0 0 0 0 0 1 1 1 2 3 6 8
25 24 20 18 17 17 15 12 10 9 8 7 6 6 6 6 5 4 4 5 4 3 2 1 1 0 0 0 0 0 0 0 0 0 0 0 0 1 2 2 3 5 6
33 29 24 21 19 18 16 14 12 11 12 10 7 5 5 5 4 2 3 4 3 2 1 2 2 1 0 0 0 0 0 0 0 0 0 0 0 1 2 3 4 5 6
37 33 29 25 20 17 16 15 14 16 15 11 7 4 4 5 5 3 2 2 2 1 0 1 2 1 0 0 0 1 1 1 1 0 0 0 0 0 1 2 4 5 6
34 32 30 28 22 17 16 15 15 18 17 13 9 6 4 4 5 4 2 2 2 1 0 0 1 1 1 0 0 1 2 2 2 1 0 0 0 0 0 0 2 4 5
30 30 29 28 25 19 16 15 15 18 18 14 11 9 6 4 4 4 3 2 1 0 0 0 0 0 1 0 0 1 3 3 3 2 1 0 0 0 0 0 0 2 4
Wind_Speed
3 4 9 10 10 10 10 10 10 11 11 11 12 12 13 13 13 14 13 13 12 13 13 12 11 11 10 10 11 11 11 11 11 11 11 11 11 10 10 10 10 7 11
7 6 10 10 10 10 10 10 10 10 10 11 11 12 12 12 13 13 12 12 12 12 12 11 11 10 10 10 10 10 10 10 10 10 10 9 10 9 9 10 10 7 11
9 6 9 10 10 10 11 10 10 10 10 11 11 12 12 12 12 12 11 11 11 11 11 10 10 10 9 9 9 9 9 9 9 9 8 4 5 8 9 9 10 11 11
9 6 8 11 10 10 10 10 10 10 10 10 11 11 12 12 11 11 11 10 10 10 10 10 9 9 9 8 8 8 8 7 7 7 3 3 3 8 8 9 10 10 10
8 6 8 13 11 11 10 10 10 10 10 10 10 10 11 10 10 10 10 10 9 9 9 9 9 8 8 7 7 6 6 6 6 5 3 2 3 7 8 9 10 10 10
8 7 9 13 12 11 10 10 9 9 9 10 10 10 10 9 9 9 9 9 9 9 8 8 8 7 7 7 6 6 5 5 4 3 3 3 3 8 9 10 10 10 9
8 6 8 12 11 11 10 10 10 9 9 9 9 9 9 8 8 8 8 8 8 8 8 7 7 7 6 6 5 5 5 5 3 3 3 3 4 9 11 10 10 10 10
9 7 7 11 11 11 11 10 10 9 9 8 8 8 8 8 8 7 7 8 8 7 7 7 6 6 6 6 5 5 5 5 4 3 3 3 6 9 11 11 11 10 10
8 7 5 5 7 10 11 10 9 9 8 8 7 7 7 7 7 7 7 7 7 7 6 7 6 6 6 6 6 6 6 6 4 3 4 3 7 11 11 11 11 11 10
6 5 4 4 3 4 5 9 9 8 8 7 6 6 6 6 6 6 5 6 7 7 6 6 6 6 6 6 6 7 7 6 3 4 3 5 9 11 11 11 11 11 10
6 4 4 4 3 3 3 6 7 7 7 6 4 6 5 2 2 3 4 5 6 6 7 6 6 6 5 5 7 7 6 3 3 3 3 7 9 10 11 11 11 11 10
7 5 4 4 4 4 4 3 2 3 3 2 2 2 2 1 1 2 3 4 5 6 6 6 6 5 4 2 4 5 2 3 3 3 4 10 11 11 11 11 11 11 11
8 7 6 5 5 4 2 3 2 1 2 2 2 2 1 1 1 0 0 1 2 3 2 3 3 2 2 1 2 2 2 3 2 3 5 10 11 11 12 12 12 11 11
7 7 6 6 5 4 3 3 3 2 2 2 2 2 2 1 1 1 0 1 1 1 1 1 1 2 2 2 3 2 3 2 3 2 5 11 10 12 13 13 12 11 11
7 6 6 6 5 4 3 2 3 3 3 3 2 2 3 2 2 2 1 1 1 1 1 1 1 1 2 2 2 2 3 4 4 4 4 10 11 11 12 13 12 12 12
8 7 6 6 6 5 3 2 3 3 3 2 2 3 3 2 2 2 1 1 0 1 1 1 0 1 1 0 1 2 2 3 3 3 3 6 11 11 11 11 12 12 12
8 7 6 6 6 5 4 3 3 3 3 3 2 3 3 3 2 2 1 1 0 0 0 0 0 1 0 0 0 1 1 2 2 3 3 2 4 9 11 11 11 11 11
7 7 6 6 5 5 4 3 2 2 3 2 2 2 3 3 3 2 1 0 0 1 1 0 1 0 0 0 0 1 1 1 2 2 2 2 2 3 6 10 10 11 11
8 7 6 5 5 4 3 2 2 2 2 2 2 2 2 2 2 2 1 1 1 1 1 0 0 0 1 1 1 1 1 1 1 2 2 2 2 2 2 5 9 10 11
8 7 6 5 5 4 3 2 2 2 1 1 2 2 2 2 3 2 1 1 1 1 0 0 0 0 1 1 1 0 1 1 1 1 2 2 2 3 3 4 3 6 11
8 7 6 6 5 4 3 3 2 2 1 1 1 2 3 2 2 2 1 1 1 1 0 1 0 1 1 1 1 2 2 1 0 1 1 1 2 2 3 3 2 2 3
9 8 7 6 5 5 3 3 2 2 2 2 1 1 2 3 2 2 2 1 0 1 1 1 1 1 1 1 1 1 2 3 2 1 1 2 2 2 2 3 3 3 2
9 9 8 7 6 5 4 2 2 2 2 1 1 0 1 2 2 2 2 1 0 1 0 1 0 1 0 1 1 2 2 1 2 2 1 1 1 1 2 2 3 4 4
9 8 7 6 5 4 4 4 4 3 2 2 2 1 1 1 2 2 1 1 1 1 1 1 0 0 1 0 1 0 2 3 1 2 3 2 1 1 2 2 3 3 4
9 8 7 6 5 4 4 4 4 3 2 1 1 1 1 0 1 1 1 1 1 1 1 1 1 1 1 1 1 0 0 0 1 2 2 3 2 2 2 2 2 2 3
7 7 7 7 5 5 5 4 4 4 3 3 2 1 1 0 1 1 1 1 1 1 1 1 1 1 1 1 1 1 1 1 1 2 2 2 2 3 2 2 2 3 3
Wind_Direction
152 154 137 130 124 119 116 115 111 112 115 115 114 115 118 120 123 124 126 129 133 135 137 137 135 130 127 128 128 129 128 131 132 132 132 131 132 131 129 128 126 123 126
152 155 139 132 126 122 120 118 116 115 116 118 121 121 121 122 124 126 129 132 133 136 139 140 139 134 132 130 130 130 128 129 132 133 133 133 136 136 135 135 134 134 135
144 149 141 135 131 126 123 122 119 116 117 120 122 123 124 125 127 128 129 134 136 136 138 141 138 139 138 136 134 135 133 133 134 136 133 129 136 141 143 140 140 139 140
145 147 143 140 134 129 125 124 122 121 120 123 124 125 127 128 131 132 133 135 139 141 143 144 144 144 143 142 141 141 141 140 140 141 135 136 145 147 148 146 145 146 146
143 146 149 141 138 133 130 129 129 127 125 126 128 128 128 131 135 138 140 142 145 147 148 150 150 149 150 150 150 152 155 154 154 146 138 150 154 159 158 155 156 157 155
139 144 148 140 140 138 136 133 132 132 130 131 133 134 134 138 140 144 147 149 151 152 153 154 156 156 161 166 166 168 177 171 157 143 152 163 168 172 171 169 167 165 165
136 141 146 140 141 142 140 137 137 135 135 137 140 142 143 145 144 146 151 153 155 158 161 163 167 171 174 177 179 183 187 180 149 146 157 167 179 182 180 178 175 173 173
138 139 143 145 143 144 142 141 142 139 139 139 144 148 149 149 151 156 159 163 167 169 172 176 181 184 188 188 192 197 194 189 165 164 164 173 184 185 187 182 181 179 177
136 137 137 146 147 146 145 144 143 143 144 143 145 152 156 158 161 166 171 173 176 179 182 187 191 198 202 202 205 205 201 199 178 177 187 180 185 188 189 187 184 184 181
130 135 137 139 139 142 149 148 148 147 148 147 149 153 160 164 165 167 172 180 186 187 194 202 204 211 215 215 213 209 206 202 180 179 186 190 191 191 192 190 188 188 186
131 136 138 135 139 146 151 162 156 154 155 156 158 155 153 153 164 169 181 186 192 196 203 217 222 230 233 229 220 216 215 190 175 191 188 195 197 199 198 195 191 190 188
152 155 151 149 149 150 163 153 149 148 148 152 148 143 135 142 160 171 190 198 207 214 218 225 235 246 250 239 225 222 212 179 183 197 197 199 203 206 206 199 195 192 190
162 160 160 162 155 155 158 143 144 137 142 155 156 148 139 139 142 164 89 229 233 231 236 234 246 254 236 216 214 209 201 191 194 205 202 202 205 207 205 201 199 193 193
156 162 162 161 157 163 159 154 149 144 150 153 169 160 145 134 118 120 135 219 230 232 226 245 248 250 248 226 214 207 202 199 201 204 206 206 206 202 201 200 199 197 198
153 159 162 155 160 163 153 155 147 155 161 164 162 162 151 145 145 160 171 189 225 226 217 228 246 278 295 266 215 203 200 203 201 204 203 206 207 200 198 199 200 201 203
159 163 163 157 160 154 152 149 150 158 163 156 161 160 152 147 151 156 164 160 201 221 209 196 218 259 298 312 242 209 202 197 197 204 206 209 208 201 198 199 201 205 207
165 164 164 161 160 156 153 159 148 155 153 151 159 151 149 152 153 146 128 114 168 161 108 81 33 70 66 59 307 245 224 206 186 197 203 208 207 203 199 201 204 208 211
159 161 169 161 158 161 157 158 141 145 146 152 152 146 157 156 139 130 123 108 93 86 82 99 73 10 343 323 257 231 216 193 190 204 208 206 206 202 208 210 210 211 212
159 160 162 150 153 160 156 144 130 133 144 152 144 144 151 135 118 124 127 119 90 76 51 316 132 211 269 277 252 225 219 186 195 211 218 204 195 200 207 220 217 212 214
157 158 158 151 152 148 136 115 102 105 120 129 137 142 141 129 117 105 112 89 84 73 28 307 275 328 253 270 286 299 258 227 202 203 214 200 186 209 211 223 217 217 220
157 156 159 152 157 150 141 138 135 142 153 148 154 154 142 136 124 110 108 104 90 106 231 278 316 0 324 2 40 4 354 336 201 194 206 185 192 208 206 208 206 208 220
165 164 162 163 165 165 165 164 156 147 156 155 146 130 132 130 138 130 119 134 97 53 1 359 27 16 323 33 104 75 6 347 338 300 196 181 188 202 208 201 191 197 210
168 172 170 169 165 165 154 129 111 91 79 83 110 161 166 147 137 127 133 116 95 117 214 317 11 108 351 349 110 134 136 245 309 320 286 231 197 197 215 209 202 201 204
175 170 162 158 155 153 142 140 144 148 162 185 186 187 164 151 144 140 116 132 161 163 192 273 252 195 128 319 322 158 171 171 171 312 320 307 261 214 228 227 221 210 203
168 162 155 149 147 141 142 149 147 150 164 155 152 144 144 157 185 162 134 154 180 195 203 207 206 199 176 181 202 245 334 136 173 174 275 306 315 272 235 226 216 213 204
164 159 154 152 155 151 150 152 154 157 155 147 158 162 171 240 250 210 165 162 186 200 208 211 210 191 196 178 178 170 175 187 213 193 221 265 284 284 267 245 217 216 209